[[[{"header":{"parameterUnit":"kt","parameterCategory":2,"dx":1,"dy":1,"la1":30.253999710083008,"la2":30.299108505249023,"lo1":-89.0895004272461,"lo2":-89.04439544677734,"nx":28,"ny":28,"refTime":"2022-10-27T21:00:00:Z","depth":0,"parameterNumber":1,"parameterNumberName":"U-component_of_WINDS"},"data":[-13.8822,-13.9013,-13.907,-13.9315,-13.9407,-13.9583,-13.9664,-13.9775,-13.9877,-14.0094,-14.0229,-14.0305,-14.0429,-14.0603,-14.0751,-14.0781,-14.0837,-14.0865,-14.0895,-14.0723,-14.0702,-14.0682,-14.0638,-14.0878,-14.0879,-14.1062,-14.1064,-14.1065,-13.8692,-13.8785,-13.8932,-13.9112,-13.9238,-13.9246,-13.9389,-13.9493,-13.965,-13.9778,-13.9914,-14.0109,-14.027,-14.0387,-14.0551,-14.0641,-14.0651,-14.068,-14.0671,-14.0689,-14.0509,-14.0462,-14.0669,-14.0669,-14.0669,-14.0669,-14.0669,-14.0669,-13.8471,-13.8584,-13.8725,-13.8884,-13.899,-13.911,-13.9227,-13.9318,-13.9461,-13.9639,-13.9679,-13.9858,-13.9995,-14.022,-14.0309,-14.0449,-14.0426,-14.0474,-14.0485,-14.0494,-14.0496,-14.0216,-14.048,-14.048,-14.048,-14.0479,-14.0479,0,-13.8323,-13.8363,-13.8507,-13.8668,-13.8787,-13.8917,-13.9045,-13.912,-13.922,-13.9335,-13.9504,-13.9611,-13.9823,-13.9987,-14.0153,-14.0235,-14.0249,-14.026,-14.0292,-14.027,-14.0232,-14.0249,-13.9948,-14.0249,-14.0247,-14.0246,-14.0245,-14.0244,-13.8098,-13.8225,-13.84,-13.8493,-13.8577,-13.8727,-13.8828,-13.8907,-13.901,-13.9179,-13.9275,-13.9442,-13.9579,-13.9841,-13.9942,-14.0099,-14.0106,-14.0214,-14.0129,-14.0107,-14.0101,-14.009,-14.0102,-14.0226,-14.0228,-14.023,-14.0232,0,-13.7966,-13.8056,-13.827,-13.8429,-13.8474,-13.8602,-13.8738,-13.8854,-13.8929,-13.9099,-13.9143,-13.9258,-13.9423,-13.9508,-13.9713,-13.9751,-13.9961,-13.9967,-13.9913,-13.9917,-14.0018,-14.0005,-14.0344,-14.039,-14.0149,-14.0151,-14.0153,0,-13.7806,-13.7969,-13.8093,-13.8212,-13.8397,-13.847,-13.865,-13.8731,-13.885,-13.8985,-13.9017,-13.9142,-13.9231,-13.9369,-13.9426,-13.9614,-13.9654,-13.9692,-13.9703,-13.9685,-13.9679,-13.9734,-13.9719,-13.9732,-13.973,-13.9729,-13.9727,0,-13.7582,-13.7842,-13.8037,-13.811,-13.8295,-13.8385,-13.8466,-13.8599,-13.8696,-13.8837,-13.89,-13.9059,-13.9144,-13.9266,-13.9336,-13.9274,-13.9569,-13.9498,-13.9607,-13.9605,-13.9661,-13.9655,-13.9941,-13.9725,-13.9725,-13.9724,-13.9723,0,-13.7464,-13.7605,-13.7876,-13.803,-13.8094,-13.8223,-13.8383,-13.8513,-13.8651,-13.8695,-13.8806,-13.8834,-13.9008,-13.8932,-13.9171,-13.907,-13.9152,-13.9206,-13.9215,-13.9229,-13.9139,-13.9281,-13.955,-13.9578,-13.9251,-13.9248,-13.9244,0,-13.7181,-13.7479,-13.7542,-13.7799,-13.7946,-13.797,-13.8115,-13.8236,-13.8306,-13.8441,-13.8519,-13.8672,-13.8634,-13.8692,-13.8801,-13.8885,-13.9017,-13.8871,-13.9059,-13.9065,-13.9015,-13.9266,-13.9281,-13.9483,-13.9195,-13.92,-13.9204,0,-13.6972,-13.7195,-13.7236,-13.732,-13.7492,-13.7616,-13.7784,-13.7952,-13.8037,-13.8171,-13.831,-13.853,-13.8508,-13.8605,-13.8643,-13.8752,-13.893,-13.8712,-13.8717,-13.8744,-13.9179,-13.9192,-13.9226,-13.8932,-13.8939,-13.8943,-13.9165,0,-13.6763,-13.6923,-13.704,-13.7226,-13.7335,-13.7501,-13.7588,-13.7691,-13.7718,-13.7786,-13.7995,-13.8115,-13.8283,-13.8346,-13.8372,-13.8594,-13.8567,-13.8542,-13.8467,-13.8633,-13.8708,-13.8739,-13.8349,-13.8348,-13.8346,-13.8345,0,0,-13.6467,-13.6697,-13.676,-13.6925,-13.702,-13.7039,-13.7207,-13.7303,-13.7493,-13.7558,-13.7519,-13.7843,-13.7941,-13.8184,-13.8243,-13.8313,-13.8359,-13.8296,-13.8555,-13.8578,-13.86,-13.8678,-13.8709,-13.8343,-13.8342,-13.8342,-13.8341,0,-13.6406,-13.6509,-13.6676,-13.6778,-13.693,-13.6995,-13.7035,-13.7188,-13.7239,-13.7445,-13.7454,-13.759,-13.7846,-13.7947,-13.8032,-13.8272,-13.8268,-13.8318,-13.8416,-13.8538,-13.8563,-13.8585,-13.8667,-13.8696,-13.8338,-13.8338,-13.8338,0,-13.6211,-13.6325,-13.6414,-13.6634,-13.6732,-13.6884,-13.6829,-13.6992,-13.7105,-13.7113,-13.7315,-13.7393,-13.7535,-13.7755,-13.7857,-13.7823,-13.818,-13.8084,-13.8095,-13.8106,-13.8228,-13.8258,-13.8284,-13.7932,-13.793,-13.7929,0,0,-13.6146,-13.6296,-13.6439,-13.6626,-13.6688,-13.6786,-13.6876,-13.6909,-13.7038,-13.7089,-13.7186,-13.731,-13.746,-13.7556,-13.7701,-13.7932,-13.7964,-13.803,-13.8049,-13.8065,-13.8083,-13.8209,-13.8239,-13.7922,-13.7922,-13.7922,0,0,-13.6114,-13.6287,-13.629,-13.6519,-13.6642,-13.6793,-13.6904,-13.6911,-13.7049,-13.7039,-13.7102,-13.7137,-13.7345,-13.7419,-13.7321,-13.7675,-13.7601,-13.7626,-13.7617,-13.7642,-13.7661,-13.7636,-13.7276,0,0,0,0,0,-13.6094,-13.6266,-13.6267,-13.6318,-13.6593,-13.6794,-13.6829,-13.6885,-13.6831,-13.6918,-13.7001,-13.6992,-13.7379,-13.7293,-13.7342,-13.7449,-13.7836,-13.7851,-13.7866,-13.7909,-13.7935,-13.7956,0,0,0,0,0,0,-13.6115,-13.6177,-13.6263,-13.642,-13.6483,-13.6788,-13.6708,-13.6729,-13.6823,-13.6819,-13.6976,-13.6997,-13.7047,-13.7272,-13.7315,-13.7416,-13.7262,-13.7842,-13.7855,-13.7867,-13.7918,-13.7939,-13.7957,0,0,0,0,0,-13.6131,-13.6181,-13.6608,-13.6418,-13.6473,-13.6589,-13.6702,-13.6719,-13.6792,-13.692,-13.694,-13.6826,-13.7049,-13.7089,-13.7298,-13.7394,-13.7232,-13.7248,-13.785,-13.7861,-13.787,-13.7928,0,0,0,0,0,0,-13.6143,-13.6197,-13.662,-13.6638,-13.6357,-13.6573,-13.6609,-13.671,-13.6888,-13.691,-13.6772,-13.6766,-13.7052,-13.7082,-13.7113,-13.7384,-13.7208,-13.7224,-13.7234,-13.7858,-13.7866,-13.7873,0,0,0,0,0,0,-13.6171,-13.6213,-13.6629,-13.6548,-13.6558,-13.6558,-13.659,-13.6775,-13.689,-13.673,-13.6731,-13.6767,-13.7005,-13.7079,-13.7103,-13.739,-13.719,-13.7205,-13.7216,-13.7223,-13.7865,-13.7871,0,0,0,0,0,0,-13.6189,-13.6226,-13.6544,-13.6552,-13.656,-13.6772,-13.6722,-13.7,-13.6822,-13.6722,-13.6808,-13.6801,-13.7002,-13.7027,-13.7096,-13.7372,-13.7385,-13.719,-13.7201,-13.7208,-13.7213,0,0,0,0,0,0,0,-13.6205,-13.5948,-13.651,-13.6554,-13.6561,-13.681,-13.6815,-13.682,-13.6821,-13.6815,-13.6809,-13.6804,-13.7101,-13.7118,-13.7135,-13.7358,0,0,-13.7188,-13.7196,0,0,0,0,0,0,0,0,-13.5934,-13.5945,-13.6511,-13.6514,-13.6518,-13.6811,-13.6815,-13.6819,-13.682,-13.6815,-13.6811,-13.6806,-13.7106,-13.7119,-13.7133,0,0,0,0,0,0,0,0,0,0,0,0,0,0,0,-13.6511,-13.6514,0,-13.6811,-13.6815,-13.6818,-13.6819,-13.6815,-13.6812,-13.6808,-13.711,-13.7121,-13.7132,0,0,0,0,0,0,0,0,0,0,0,0,0,0,0,0,0,0,0,0,0,0,0,0,0,0,0,0,0,0,0,0,0,0,0,0,0,0,0,0,0,0,0,0,0,0,0,0,0,0,0,0,0,0,0,0,0,0,0,0,0,0,0,0,0,0,0,0,0]}],[{"header":{"parameterUnit":"kt","parameterCategory":2,"dx":1,"dy":1,"la1":30.253999710083008,"la2":30.299108505249023,"lo1":-89.0895004272461,"lo2":-89.04439544677734,"nx":28,"ny":28,"refTime":"2022-10-27T21:00:00:Z","depth":0,"parameterNumber":2,"parameterNumberName":"V-component_of_WINDS"},"data":[6.158,6.1675,6.1683,6.1796,6.1823,6.1903,6.1934,6.1975,6.201,6.2108,6.2166,6.2184,6.2223,6.2296,6.236,6.2367,6.2395,6.2425,6.2428,6.2283,6.2263,6.2245,6.2223,6.2431,6.2431,6.2578,6.258,6.2581,6.1483,6.151,6.1571,6.1635,6.1688,6.1665,6.1714,6.1761,6.1832,6.1875,6.1931,6.2017,6.2087,6.2114,6.2183,6.2231,6.2224,6.2249,6.2246,6.2254,6.2098,6.2074,6.2254,6.2254,6.2254,6.2254,6.2254,6.2254,6.131,6.1365,6.1407,6.1472,6.1506,6.1549,6.1604,6.1623,6.1683,6.1752,6.1748,6.1829,6.1874,6.1957,6.1986,6.2052,6.2024,6.2054,6.2062,6.207,6.208,6.1874,6.2063,6.2062,6.2062,6.2061,6.2061,0,6.1185,6.1187,6.1243,6.1303,6.1351,6.1397,6.1441,6.1475,6.1479,6.1528,6.16,6.1642,6.1727,6.1796,6.186,6.1883,6.1863,6.186,6.1881,6.1886,6.1885,6.1891,6.164,6.1854,6.1852,6.1851,6.185,6.1849,6.1013,6.1075,6.1119,6.1158,6.1182,6.1244,6.1283,6.1281,6.1322,6.1376,6.1426,6.1493,6.1547,6.1661,6.1681,6.1744,6.1735,6.1817,6.1743,6.1748,6.174,6.1737,6.1746,6.1831,6.1833,6.1835,6.1836,0,6.0917,6.0924,6.102,6.1056,6.1067,6.1133,6.1164,6.1219,6.1229,6.1306,6.1324,6.134,6.141,6.1415,6.1495,6.1496,6.1612,6.16,6.1599,6.1598,6.1674,6.1668,6.1913,6.1947,6.1728,6.1731,6.1732,0,6.0774,6.0854,6.086,6.0914,6.1005,6.0998,6.1089,6.1105,6.1138,6.1199,6.1174,6.1232,6.1228,6.1288,6.1289,6.1384,6.1397,6.1405,6.1404,6.1408,6.1407,6.143,6.1421,6.1396,6.1394,6.1393,6.1392,0,6.0624,6.0717,6.0806,6.0828,6.0872,6.0915,6.0935,6.097,6.1007,6.1055,6.108,6.1136,6.1168,6.1214,6.1215,6.1166,6.1329,6.1261,6.1336,6.1337,6.1371,6.1369,6.1585,6.1391,6.139,6.139,6.139,0,6.0508,6.0554,6.068,6.0717,6.0741,6.0799,6.0854,6.0904,6.0943,6.0946,6.0984,6.0966,6.1045,6.0979,6.109,6.1026,6.106,6.1073,6.1078,6.1085,6.1011,6.1135,6.1338,6.1361,6.1095,6.1092,6.109,0,6.0337,6.0463,6.0456,6.0576,6.0635,6.0603,6.0667,6.07,6.0709,6.0763,6.0773,6.0832,6.0783,6.0802,6.0856,6.0869,6.0952,6.0858,6.094,6.0943,6.0933,6.112,6.1149,6.1293,6.1059,6.1062,6.1064,0,6.0203,6.025,6.0271,6.0297,6.0335,6.0382,6.0456,6.0512,6.0548,6.0584,6.0648,6.0729,6.0697,6.0726,6.0716,6.0772,6.0896,6.0729,6.073,6.0762,6.1041,6.107,6.1094,6.0878,6.0882,6.0885,6.1039,0,6.0035,6.0095,6.0151,6.0202,6.0238,6.031,6.0309,6.0348,6.0335,6.0341,6.0432,6.0455,6.0511,6.0536,6.0521,6.0646,6.0626,6.0588,6.0523,6.0645,6.0696,6.0716,6.0448,6.0446,6.0444,6.0443,0,0,5.9871,5.9956,5.9941,6.0008,6.0038,5.9999,6.0077,6.0101,6.0149,6.0172,6.0136,6.0253,6.0272,6.0382,6.0419,6.044,6.0464,6.0418,6.0586,6.0602,6.0617,6.0672,6.0693,6.044,6.044,6.0439,6.0438,0,5.9808,5.9825,5.9899,5.9924,5.9958,5.9958,5.9977,6.0003,6.0009,6.0094,6.0061,6.0114,6.0203,6.0231,6.0256,6.0406,6.0377,6.0423,6.0505,6.057,6.0588,6.0604,6.0661,6.0682,6.0434,6.0435,6.0435,0,5.9678,5.9696,5.973,5.9791,5.9811,5.987,5.9802,5.9865,5.9909,5.9859,5.9944,5.9956,5.999,6.0091,6.0136,6.0103,6.03,6.0234,6.0245,6.0249,6.0312,6.0333,6.0353,6.0098,6.0097,6.0095,0,0,5.9624,5.9677,5.9693,5.9776,5.9792,5.9792,5.9821,5.9809,5.9838,5.985,5.9863,5.9895,5.9948,5.9982,6.003,6.014,6.0148,6.0193,6.0209,6.0222,6.0234,6.0299,6.0321,6.0091,6.0091,6.0091,0,0,5.9597,5.9618,5.9597,5.9693,5.9723,5.9743,5.9795,5.9771,5.9813,5.9804,5.9785,5.9792,5.9886,5.9898,5.984,6.0007,5.9943,5.9956,5.9995,6.0015,6.0031,6.0026,5.9772,0,0,0,0,0,5.9529,5.9616,5.9597,5.9612,5.9685,5.9754,5.9763,5.9749,5.9705,5.9748,5.9756,5.9721,5.9864,5.9813,5.9829,5.9893,6.0035,6.0045,6.0054,6.0131,6.0152,6.0169,0,0,0,0,0,0,5.9535,5.9554,5.9594,5.9618,5.9634,5.975,5.9673,5.9672,5.97,5.9693,5.972,5.9721,5.9711,5.9803,5.9818,5.9879,5.9767,6.0039,6.0047,6.0055,6.0138,6.0155,6.017,0,0,0,0,0,5.954,5.9555,5.9675,5.9617,5.9631,5.9634,5.967,5.9668,5.969,5.97,5.9699,5.9676,5.9713,5.9725,5.9812,5.9873,5.9756,5.9762,6.0044,6.0051,6.0057,6.0146,0,0,0,0,0,0,5.9543,5.9554,5.9677,5.9681,5.9581,5.9627,5.9633,5.9665,5.9694,5.9695,5.9654,5.9648,5.9716,5.9724,5.9733,5.9872,5.9748,5.9754,5.9757,6.0049,6.0054,6.0059,0,0,0,0,0,0,5.9546,5.9558,5.9679,5.9635,5.9634,5.9621,5.9626,5.9697,5.9695,5.9647,5.9643,5.9651,5.9702,5.9724,5.9731,5.9842,5.9741,5.9747,5.9751,5.9753,6.0054,6.0058,0,0,0,0,0,0,5.9551,5.9561,5.9634,5.9633,5.9632,5.9675,5.9683,5.9758,5.9657,5.9646,5.9648,5.9643,5.9704,5.971,5.973,5.9838,5.9841,5.9742,5.9745,5.9748,5.975,0,0,0,0,0,0,0,5.9555,5.949,5.9654,5.9632,5.963,5.9717,5.9718,5.9719,5.9656,5.9653,5.9649,5.9645,5.971,5.9716,5.9722,5.9835,0,0,5.9741,5.9744,0,0,0,0,0,0,0,0,5.9485,5.9489,5.9654,5.9655,5.9656,5.9717,5.9718,5.9719,5.9656,5.9653,5.965,5.9647,5.9712,5.9717,5.9722,0,0,0,0,0,0,0,0,0,0,0,0,0,0,0,5.9654,5.9655,0,5.9717,5.9718,5.9719,5.9655,5.9653,5.965,5.9648,5.9713,5.9717,5.9721,0,0,0,0,0,0,0,0,0,0,0,0,0,0,0,0,0,0,0,0,0,0,0,0,0,0,0,0,0,0,0,0,0,0,0,0,0,0,0,0,0,0,0,0,0,0,0,0,0,0,0,0,0,0,0,0,0,0,0,0,0,0,0,0,0,0,0,0,0]}]]]